| time (UTC) | temp C | wind direction | speed KPH | gust KPH | rain 1hr cm | rain 24hr cm | rain mn cm | humidity % | barometer mb |
| 20260504130319 | 29 | 251 | 1.6 | 1.6 | 0.00 | 0.00 | 0.00 | 86 | 1014.0 |
| 20260504120243 | 27 | 219 | 0.0 | 0.0 | 0.00 | 0.00 | 0.00 | 94 | 1013.4 |
| 20260504110710 | 26 | 244 | 0.0 | 0.0 | 0.00 | 0.00 | 0.00 | 95 | 1012.8 |
| 20260504110206 | 26 | 237 | 0.0 | 0.0 | 0.00 | 0.00 | 0.00 | 95 | 1012.8 |
| 20260504100130 | 26 | 199 | 0.0 | 1.6 | 0.00 | 0.00 | 0.00 | 94 | 1012.7 |
| 20260504081523 | 27 | 306 | 1.6 | 1.6 | 0.00 | 0.00 | 0.00 | 92 | 1012.4 |
| 20260504081019 | 27 | 327 | 1.6 | 1.6 | 0.00 | 0.00 | 0.00 | 92 | 1012.4 |
| 20260504080515 | 26 | 137 | 1.6 | 1.6 | 0.00 | 0.00 | 0.00 | 92 | 1012.4 |
| 20260504050334 | 27 | 271 | 1.6 | 1.6 | 0.00 | 0.00 | 0.00 | 95 | 1014.4 |
| 20260504045831 | 27 | 273 | 1.6 | 1.6 | 0.00 | 0.00 | 0.00 | 95 | 1014.5 |
| 20260504045326 | 27 | 259 | 0.0 | 0.0 | 0.00 | 0.00 | 0.00 | 94 | 1014.3 |
| 20260504044823 | 27 | 251 | 0.0 | 0.0 | 0.00 | 0.00 | 0.00 | 94 | 1014.4 |
| 20260504044320 | 27 | 225 | 0.0 | 0.0 | 0.00 | 0.00 | 0.00 | 94 | 1014.4 |
| 20260504043817 | 27 | 244 | 1.6 | 1.6 | 0.00 | 0.00 | 0.00 | 94 | 1014.4 |
| 20260504043314 | 27 | 251 | 0.0 | 0.0 | 0.00 | 0.00 | 0.00 | 94 | 1014.4 |
| 20260504042812 | 27 | 250 | 0.0 | 1.6 | 0.00 | 0.00 | 0.00 | 94 | 1014.5 |
| 20260504042308 | 27 | 220 | 0.0 | 0.0 | 0.00 | 0.00 | 0.00 | 94 | 1014.4 |
| 20260504041805 | 27 | 245 | 0.0 | 1.6 | 0.00 | 0.00 | 0.00 | 94 | 1014.6 |
| 20260504041300 | 27 | 233 | 0.0 | 0.0 | 0.00 | 0.00 | 0.00 | 94 | 1014.8 |
| 20260504040757 | 27 | 227 | 0.0 | 0.0 | 0.00 | 0.00 | 0.00 | 94 | 1014.7 |
| 20260504040255 | 27 | 274 | 0.0 | 1.6 | 0.00 | 0.00 | 0.00 | 94 | 1014.8 |
| 20260504035750 | 27 | 242 | 0.0 | 0.0 | 0.00 | 0.00 | 0.00 | 94 | 1014.8 |
| 20260504035247 | 27 | 258 | 0.0 | 0.0 | 0.00 | 0.00 | 0.00 | 93 | 1014.9 |
| 20260504034745 | 27 | 245 | 0.0 | 0.0 | 0.00 | 0.00 | 0.00 | 93 | 1015.0 |
| 20260504034242 | 27 | 246 | 0.0 | 0.0 | 0.00 | 0.00 | 0.00 | 93 | 1014.8 |
| 20260504033740 | 27 | 258 | 0.0 | 0.0 | 0.00 | 0.00 | 0.00 | 93 | 1014.9 |
| 20260504033237 | 27 | 251 | 0.0 | 0.0 | 0.00 | 0.00 | 0.00 | 93 | 1014.7 |
| 20260504032734 | 27 | 258 | 0.0 | 0.0 | 0.00 | 0.00 | 0.00 | 93 | 1014.7 |
| 20260504032231 | 27 | 246 | 1.6 | 1.6 | 0.00 | 0.00 | 0.00 | 92 | 1014.9 |
| 20260504031727 | 27 | 257 | 1.6 | 1.6 | 0.00 | 0.00 | 0.00 | 92 | 1015.0 |
| 20260504031225 | 27 | 256 | 0.0 | 0.0 | 0.00 | 0.00 | 0.00 | 92 | 1014.8 |
| 20260504030721 | 27 | 162 | 1.6 | 1.6 | 0.00 | 0.00 | 0.00 | 91 | 1014.8 |
| 20260504030218 | 27 | 259 | 0.0 | 0.0 | 0.00 | 0.00 | 0.00 | 91 | 1014.6 |
| 20260504025715 | 27 | 290 | 0.0 | 0.0 | 0.00 | 0.00 | 0.00 | 91 | 1014.9 |
| 20260504025211 | 27 | 241 | 0.0 | 0.0 | 0.00 | 0.00 | 0.00 | 91 | 1014.8 |
| 20260504024709 | 27 | 181 | 0.0 | 1.6 | 0.00 | 0.00 | 0.00 | 90 | 1014.8 |
| 20260504024205 | 27 | 167 | 0.0 | 1.6 | 0.00 | 0.00 | 0.00 | 90 | 1014.8 |
| 20260504023702 | 27 | 167 | 0.0 | 0.0 | 0.00 | 0.00 | 0.00 | 90 | 1014.7 |
| 20260504023158 | 28 | 167 | 0.0 | 0.0 | 0.00 | 0.00 | 0.00 | 90 | 1014.8 |
| 20260504022654 | 28 | 167 | 0.0 | 0.0 | 0.00 | 0.00 | 0.00 | 90 | 1014.7 |
| 20260504022150 | 27 | 167 | 0.0 | 0.0 | 0.00 | 0.00 | 0.00 | 90 | 1014.6 |
| 20260504021648 | 28 | 164 | 1.6 | 1.6 | 0.00 | 0.00 | 0.00 | 90 | 1014.5 |
| 20260504021145 | 28 | 179 | 0.0 | 0.0 | 0.00 | 0.00 | 0.00 | 90 | 1014.5 |
| 20260504020642 | 28 | 240 | 0.0 | 0.0 | 0.00 | 0.00 | 0.00 | 89 | 1014.4 |
| 20260504020137 | 28 | 177 | 0.0 | 0.0 | 0.00 | 0.00 | 0.00 | 89 | 1014.7 |
| 20260504015634 | 28 | 250 | 1.6 | 1.6 | 0.00 | 0.00 | 0.00 | 89 | 1014.6 |
| 20260504015131 | 28 | 290 | 1.6 | 1.6 | 0.00 | 0.00 | 0.00 | 89 | 1014.5 |
| 20260504014626 | 28 | 264 | 1.6 | 3.2 | 0.00 | 0.00 | 0.00 | 89 | 1014.4 |
| 20260504014124 | 28 | 236 | 0.0 | 1.6 | 0.00 | 0.00 | 0.00 | 89 | 1014.2 |
| 20260504013621 | 28 | 281 | 3.2 | 4.8 | 0.00 | 0.00 | 0.00 | 89 | 1014.4 |
| 20260504013118 | 28 | 310 | 4.8 | 6.4 | 0.00 | 0.00 | 0.00 | 89 | 1014.5 |
| 20260504012615 | 28 | 317 | 4.8 | 6.4 | 0.00 | 0.00 | 0.00 | 89 | 1014.4 |
| 20260504012113 | 28 | 343 | 3.2 | 3.2 | 0.00 | 0.00 | 0.00 | 89 | 1014.5 |
| 20260504011610 | 28 | 258 | 3.2 | 3.2 | 0.00 | 0.00 | 0.00 | 89 | 1014.3 |
| 20260504011106 | 28 | 215 | 3.2 | 4.8 | 0.00 | 0.00 | 0.00 | 89 | 1014.5 |
| 20260504010602 | 28 | 236 | 0.0 | 0.0 | 0.00 | 0.00 | 0.00 | 88 | 1014.3 |
| 20260504010058 | 28 | 292 | 1.6 | 3.2 | 0.00 | 0.00 | 0.00 | 88 | 1014.1 |
| 20260504005555 | 28 | 243 | 3.2 | 3.2 | 0.00 | 0.00 | 0.00 | 88 | 1013.9 |
| 20260504005052 | 28 | 223 | 0.0 | 1.6 | 0.00 | 0.00 | 0.00 | 89 | 1013.7 |
| 20260504004550 | 28 | 197 | 0.0 | 1.6 | 0.00 | 0.00 | 0.00 | 89 | 1013.6 |
| 20260504004047 | 28 | 269 | 0.0 | 1.6 | 0.00 | 0.00 | 0.00 | 88 | 1013.6 |
| 20260504003543 | 28 | 223 | 1.6 | 1.6 | 0.00 | 0.00 | 0.00 | 88 | 1013.5 |
| 20260504003040 | 28 | 227 | 0.0 | 0.0 | 0.00 | 0.00 | 0.00 | 88 | 1013.4 |
| 20260504002537 | 28 | 227 | 1.6 | 3.2 | 0.00 | 0.00 | 0.00 | 88 | 1013.3 |
| 20260504002034 | 28 | 232 | 0.0 | 1.6 | 0.00 | 0.00 | 0.00 | 88 | 1013.3 |
| 20260504001532 | 28 | 237 | 0.0 | 1.6 | 0.00 | 0.00 | 0.00 | 88 | 1013.2 |
| 20260504001027 | 28 | 240 | 0.0 | 0.0 | 0.00 | 0.00 | 0.00 | 88 | 1012.9 |
| 20260504000525 | 28 | 222 | 0.0 | 0.0 | 0.00 | 0.00 | 0.00 | 88 | 1012.8 |
| 20260504000023 | 28 | 239 | 0.0 | 1.6 | 0.00 | 0.00 | 0.00 | 87 | 1012.8 |
| 20260503235521 | 28 | 231 | 1.6 | 3.2 | 0.00 | 0.00 | 0.00 | 87 | 1012.9 |
| 20260503235017 | 29 | 225 | 1.6 | 1.6 | 0.00 | 0.00 | 0.00 | 86 | 1012.6 |
| 20260503234515 | 29 | 238 | 0.0 | 0.0 | 0.00 | 0.00 | 0.00 | 86 | 1012.5 |
| 20260503234013 | 29 | 227 | 0.0 | 1.6 | 0.00 | 0.00 | 0.00 | 86 | 1012.3 |
| 20260503233509 | 29 | 227 | 0.0 | 1.6 | 0.00 | 0.00 | 0.00 | 85 | 1012.4 |
| 20260503233005 | 30 | 231 | 0.0 | 0.0 | 0.00 | 0.00 | 0.00 | 84 | 1012.3 |
| 20260503232502 | 30 | 226 | 1.6 | 1.6 | 0.00 | 0.00 | 0.00 | 83 | 1012.2 |
| 20260503232000 | 30 | 239 | 1.6 | 3.2 | 0.00 | 0.00 | 0.00 | 82 | 1012.3 |
| 20260503231457 | 30 | 252 | 0.0 | 1.6 | 0.00 | 0.00 | 0.00 | 82 | 1011.9 |
| 20260503230954 | 30 | 216 | 0.0 | 1.6 | 0.00 | 0.00 | 0.00 | 81 | 1011.9 |
| 20260503230450 | 31 | 228 | 0.0 | 1.6 | 0.00 | 0.00 | 0.00 | 80 | 1011.8 |
| 20260503225948 | 31 | 217 | 1.6 | 3.2 | 0.00 | 0.00 | 0.00 | 79 | 1011.6 |
| 20260503225444 | 31 | 222 | 1.6 | 3.2 | 0.00 | 0.00 | 0.00 | 80 | 1011.8 |
| 20260503224940 | 31 | 229 | 0.0 | 1.6 | 0.00 | 0.00 | 0.00 | 80 | 1011.3 |
| 20260503224437 | 31 | 232 | 3.2 | 4.8 | 0.00 | 0.00 | 0.00 | 80 | 1011.5 |
| 20260503223935 | 31 | 175 | 0.0 | 0.0 | 0.00 | 0.00 | 0.00 | 80 | 1011.3 |
| 20260503223433 | 31 | 272 | 3.2 | 4.8 | 0.00 | 0.00 | 0.00 | 79 | 1011.3 |
| 20260503222928 | 31 | 237 | 0.0 | 0.0 | 0.00 | 0.00 | 0.00 | 79 | 1011.0 |
| 20260503222427 | 31 | 58 | 1.6 | 1.6 | 0.00 | 0.00 | 0.00 | 79 | 1011.2 |
| 20260503221925 | 31 | 188 | 1.6 | 1.6 | 0.00 | 0.00 | 0.00 | 79 | 1011.1 |
| 20260503221423 | 32 | 254 | 1.6 | 3.2 | 0.00 | 0.00 | 0.00 | 77 | 1011.1 |
| 20260503220919 | 31 | 241 | 0.0 | 1.6 | 0.00 | 0.00 | 0.00 | 78 | 1011.1 |
| 20260503220415 | 31 | 230 | 0.0 | 1.6 | 0.00 | 0.00 | 0.00 | 78 | 1011.2 |
| 20260503215913 | 31 | 234 | 0.0 | 0.0 | 0.00 | 0.00 | 0.00 | 79 | 1011.2 |
| 20260503215410 | 31 | 205 | 0.0 | 1.6 | 0.00 | 0.00 | 0.00 | 79 | 1011.3 |
| 20260503214907 | 31 | 249 | 1.6 | 3.2 | 0.00 | 0.00 | 0.00 | 79 | 1011.1 |
| 20260503214404 | 32 | 241 | 1.6 | 3.2 | 0.00 | 0.00 | 0.00 | 77 | 1011.3 |
| 20260503213902 | 31 | 268 | 1.6 | 1.6 | 0.00 | 0.00 | 0.00 | 79 | 1011.1 |
| 20260503213359 | 31 | 244 | 1.6 | 1.6 | 0.00 | 0.00 | 0.00 | 79 | 1011.2 |
| 20260503212856 | 31 | 244 | 3.2 | 4.8 | 0.00 | 0.00 | 0.00 | 78 | 1011.2 |
| 20260503212354 | 31 | 258 | 0.0 | 1.6 | 0.00 | 0.00 | 0.00 | 79 | 1011.3 |
| 20260503211851 | 31 | 253 | 3.2 | 4.8 | 0.00 | 0.00 | 0.00 | 79 | 1011.5 |
| 20260503211348 | 31 | 250 | 3.2 | 4.8 | 0.00 | 0.00 | 0.00 | 79 | 1011.2 |
| 20260503210842 | 32 | 298 | 6.4 | 9.7 | 0.00 | 0.00 | 0.00 | 76 | 1011.3 |
| 20260503210340 | 32 | 241 | 1.6 | 3.2 | 0.00 | 0.00 | 0.00 | 77 | 1011.4 |
| 20260503205835 | 32 | 236 | 0.0 | 1.6 | 0.00 | 0.00 | 0.00 | 76 | 1011.2 |
| 20260503205332 | 32 | 212 | 3.2 | 3.2 | 0.00 | 0.00 | 0.00 | 75 | 1011.4 |
| 20260503204828 | 32 | 220 | 6.4 | 9.7 | 0.00 | 0.00 | 0.00 | 76 | 1011.4 |
| 20260503204326 | 32 | 307 | 3.2 | 4.8 | 0.00 | 0.00 | 0.00 | 76 | 1011.3 |
| 20260503203823 | 32 | 274 | 1.6 | 1.6 | 0.00 | 0.00 | 0.00 | 79 | 1011.5 |
| 20260503203320 | 31 | 250 | 4.8 | 9.7 | 0.00 | 0.00 | 0.00 | 79 | 1011.5 |
| 20260503202817 | 31 | 246 | 8.0 | 11.3 | 0.00 | 0.00 | 0.00 | 79 | 1011.7 |
| 20260503202315 | 32 | 179 | 0.0 | 1.6 | 0.00 | 0.00 | 0.00 | 77 | 1011.9 |
| 20260503201813 | 32 | 231 | 3.2 | 4.8 | 0.00 | 0.00 | 0.00 | 77 | 1011.8 |
| 20260503201310 | 32 | 249 | 6.4 | 6.4 | 0.00 | 0.00 | 0.00 | 77 | 1011.9 |
| 20260503200808 | 32 | 246 | 1.6 | 4.8 | 0.00 | 0.00 | 0.00 | 75 | 1011.8 |
| 20260503200303 | 33 | 122 | 4.8 | 6.4 | 0.00 | 0.00 | 0.00 | 76 | 1011.9 |
| 20260503195801 | 33 | 34 | 1.6 | 3.2 | 0.00 | 0.00 | 0.00 | 76 | 1011.8 |
| 20260503195257 | 32 | 256 | 3.2 | 3.2 | 0.00 | 0.00 | 0.00 | 77 | 1012.1 |
| 20260503194754 | 32 | 195 | 1.6 | 1.6 | 0.00 | 0.00 | 0.00 | 79 | 1012.3 |
| 20260503194250 | 31 | 212 | 4.8 | 6.4 | 0.00 | 0.00 | 0.00 | 81 | 1012.4 |
| 20260503193746 | 31 | 214 | 4.8 | 4.8 | 0.00 | 0.00 | 0.00 | 82 | 1012.5 |
| 20260503193243 | 31 | 222 | 1.6 | 1.6 | 0.00 | 0.00 | 0.00 | 82 | 1012.7 |
| 20260503192738 | 30 | 96 | 0.0 | 1.6 | 0.00 | 0.00 | 0.00 | 83 | 1012.7 |
| 20260503192234 | 31 | 237 | 1.6 | 1.6 | 0.00 | 0.00 | 0.00 | 82 | 1013.0 |
| 20260503191731 | 31 | 234 | 1.6 | 3.2 | 0.00 | 0.00 | 0.00 | 81 | 1012.7 |
| 20260503191228 | 31 | 241 | 1.6 | 1.6 | 0.00 | 0.00 | 0.00 | 81 | 1012.6 |
| 20260503190725 | 31 | 206 | 3.2 | 3.2 | 0.00 | 0.00 | 0.00 | 80 | 1012.6 |
| 20260503190221 | 31 | 251 | 0.0 | 1.6 | 0.00 | 0.00 | 0.00 | 81 | 1012.7 |
| 20260503185719 | 31 | 238 | 4.8 | 6.4 | 0.00 | 0.00 | 0.00 | 81 | 1012.6 |
| 20260503185214 | 31 | 222 | 3.2 | 4.8 | 0.00 | 0.00 | 0.00 | 82 | 1012.7 |
| 20260503184709 | 31 | 239 | 6.4 | 6.4 | 0.00 | 0.00 | 0.00 | 81 | 1012.9 |
| 20260503184205 | 31 | 207 | 1.6 | 3.2 | 0.00 | 0.00 | 0.00 | 81 | 1012.6 |
| 20260503183702 | 31 | 269 | 1.6 | 3.2 | 0.00 | 0.00 | 0.00 | 81 | 1013.0 |
| 20260503183159 | 32 | 216 | 3.2 | 6.4 | 0.00 | 0.00 | 0.00 | 79 | 1013.0 |
| 20260503182657 | 32 | 256 | 3.2 | 4.8 | 0.00 | 0.00 | 0.00 | 79 | 1013.2 |
| 20260503182155 | 32 | 235 | 1.6 | 3.2 | 0.00 | 0.00 | 0.00 | 80 | 1013.1 |
| 20260503181652 | 32 | 253 | 3.2 | 4.8 | 0.00 | 0.00 | 0.00 | 79 | 1013.3 |
| 20260503181149 | 31 | 247 | 3.2 | 9.7 | 0.00 | 0.00 | 0.00 | 80 | 1013.3 |
| 20260503180646 | 31 | 243 | 1.6 | 1.6 | 0.00 | 0.00 | 0.00 | 80 | 1013.4 |
| 20260503180144 | 31 | 231 | 1.6 | 1.6 | 0.00 | 0.00 | 0.00 | 81 | 1013.5 |
| 20260503175640 | 31 | 249 | 1.6 | 3.2 | 0.00 | 0.00 | 0.00 | 81 | 1013.7 |
| 20260503175138 | 31 | 279 | 4.8 | 4.8 | 0.00 | 0.00 | 0.00 | 80 | 1013.5 |
| 20260503174634 | 31 | 109 | 1.6 | 3.2 | 0.00 | 0.00 | 0.00 | 80 | 1013.8 |
| 20260503174131 | 32 | 277 | 1.6 | 1.6 | 0.00 | 0.00 | 0.00 | 78 | 1013.7 |
| 20260503173626 | 32 | 243 | 1.6 | 1.6 | 0.00 | 0.00 | 0.00 | 78 | 1013.7 |
| 20260503173123 | 31 | 222 | 3.2 | 4.8 | 0.00 | 0.00 | 0.00 | 80 | 1014.0 |
| 20260503172620 | 31 | 262 | 1.6 | 1.6 | 0.00 | 0.00 | 0.00 | 80 | 1014.0 |
| 20260503172118 | 31 | 251 | 1.6 | 1.6 | 0.00 | 0.00 | 0.00 | 81 | 1014.1 |
| 20260503171614 | 31 | 222 | 3.2 | 3.2 | 0.00 | 0.00 | 0.00 | 79 | 1014.1 |
| 20260503171111 | 31 | 234 | 0.0 | 1.6 | 0.00 | 0.00 | 0.00 | 81 | 1014.0 |
| 20260503170608 | 31 | 240 | 0.0 | 0.0 | 0.00 | 0.00 | 0.00 | 81 | 1014.1 |
| 20260503170104 | 31 | 237 | 0.0 | 1.6 | 0.00 | 0.00 | 0.00 | 79 | 1014.1 |
| 20260503151000 | 30 | 218 | 1.6 | 1.6 | 0.00 | 0.00 | 0.00 | 81 | 1014.1 |
| 20260503150456 | 31 | 257 | 3.2 | 4.8 | 0.00 | 0.00 | 0.00 | 80 | 1013.9 |